(90482) Orcus
ephemeris date magn radius delta ra dec elong phase
Today24 Aug 202619.147.982 AU48.891 AU10h41m-13°08'25.6°0.5°
Opposition8 Mar 202719.047.968 AU47.038 AU10h43m-14°16'159.3°0.4°
(90482) Orcus - 2026-08-24
astro.vanbuitenen.nl


 
-1 year
-1 month
-1 day
Now
+1 day
+1 month
+1 year

The interactive orbit chart above shows the body's path through the solar system and its position at the given date. Green and blue lines are shown perpendicular to the ecliptic plane: Green if the path is above the ecliptic plane, blue if it is below. (Left-click and drag to rotate the view; Right-click and drag to move the view; Use scroll wheel to zoom in our out.)

The orbital elements of Orcus are:

            e (Eccentricity)                : 0.2205384
            a (Semimajor axis)              : 39.3761338
            i (Inclination)                 : 20.55681
            Ω (Longitude of ascending node) : 268.40537
            ω (Argument of perihelion)      : 73.56374
            M (Mean anomaly)                : 189.10476
            Epoch                           : 2026 Jun 09

            L (Longitude of perihelion)     : 340.91751
            B (Latitude of perihelion)      : 19.68123
            P (Orbital period in years)     : 247.09            
        

The light curve chart below shows the estimated development of the minor planet's magnitude.


The all-sky chart below shows the path of the minor planet over the same period as the light curve. The current position is marked yellow.





The following chart shows the path of the minor planet in the next few days. The field of view is optimized for (~10x50) binoculars and finderscopes.




Ephemerides:
Date       Time       RA (2000)    DEC (2000)    delta   radius  elong  phase   PA    magn
2026-08-24 00:00 UT   10 41 19.1   -13 08 53    48.891   47.982   25.6    0.5   162   19.1 
2026-08-24 11:44 UT   10 41 21.6   -13 09 05    48.893   47.981   25.3    0.5   163   19.1 
2026-08-25 00:00 UT   10 41 24.2   -13 09 19    48.895   47.981   25.1    0.5   164   19.1 
2026-08-26 00:00 UT   10 41 29.3   -13 09 45    48.899   47.981   24.5    0.5   166   19.1 
2026-08-27 00:00 UT   10 41 34.4   -13 10 12    48.903   47.981   24.0    0.5   168   19.1 
2026-08-28 00:00 UT   10 41 39.5   -13 10 39    48.906   47.981   23.5    0.5   170   19.1 
2026-08-29 00:00 UT   10 41 44.6   -13 11 07    48.909   47.981   23.0    0.5   172   19.1 
2026-08-30 00:00 UT   10 41 49.7   -13 11 35    48.912   47.981   22.5    0.5   174   19.1 
2026-08-31 00:00 UT   10 41 54.9   -13 12 04    48.915   47.981   22.1    0.5   176   19.1 
2026-09-01 00:00 UT   10 41 60.0   -13 12 33    48.917   47.981   21.7    0.4   178   19.1 
2026-09-02 00:00 UT   10 42 05.1   -13 13 03    48.919   47.981   21.3    0.4   181   19.1 
2026-09-03 00:00 UT   10 42 10.2   -13 13 33    48.921   47.981   21.0    0.4   183   19.1 
2026-09-04 00:00 UT   10 42 15.4   -13 14 03    48.923   47.981   20.7    0.4   186   19.1 
2026-09-05 00:00 UT   10 42 20.5   -13 14 34    48.924   47.981   20.5    0.4   188   19.1 
2026-09-06 00:00 UT   10 42 25.6   -13 15 05    48.925   47.981   20.3    0.4   191   19.1 
2026-09-07 00:00 UT   10 42 30.7   -13 15 37    48.926   47.981   20.1    0.4   194   19.1 
2026-09-08 00:00 UT   10 42 35.8   -13 16 09    48.926   47.981   20.0    0.4   196   19.1 
2026-09-09 00:00 UT   10 42 40.9   -13 16 42    48.927   47.980   19.9    0.4   199   19.1 
2026-09-10 00:00 UT   10 42 46.0   -13 17 15    48.927   47.980   19.8    0.4   202   19.1 
2026-09-11 00:00 UT   10 42 51.1   -13 17 48    48.926   47.980   19.8    0.4   205   19.1 
2026-09-12 00:00 UT   10 42 56.1   -13 18 22    48.926   47.980   19.9    0.4   208   19.1 
2026-09-13 00:00 UT   10 43 01.2   -13 18 56    48.925   47.980   19.9    0.4   210   19.1 
2026-09-14 00:00 UT   10 43 06.2   -13 19 30    48.924   47.980   20.1    0.4   213   19.1 
2026-09-15 00:00 UT   10 43 11.3   -13 20 05    48.923   47.980   20.2    0.4   216   19.1 
2026-09-16 00:00 UT   10 43 16.3   -13 20 40    48.921   47.980   20.4    0.4   218   19.1 
2026-09-17 00:00 UT   10 43 21.3   -13 21 15    48.919   47.980   20.7    0.4   221   19.1 
2026-09-18 00:00 UT   10 43 26.2   -13 21 51    48.917   47.980   21.0    0.4   224   19.1 
2026-09-19 00:00 UT   10 43 31.2   -13 22 27    48.914   47.980   21.3    0.4   226   19.1 
2026-09-20 00:00 UT   10 43 36.1   -13 23 03    48.912   47.980   21.7    0.4   229   19.1 
2026-09-21 00:00 UT   10 43 41.0   -13 23 40    48.909   47.980   22.1    0.5   231   19.1 
2026-09-22 00:00 UT   10 43 45.9   -13 24 17    48.906   47.980   22.5    0.5   233   19.1 
2026-09-23 00:00 UT   10 43 50.7   -13 24 54    48.902   47.980   23.0    0.5   235   19.1 


    Terminology:
            
    delta:  distance between minor planet and earth in AU
    radius: distance between minor planet and sun in AU
    magn:   magnitude (brightness) estimate    
    ra:     right ascension in hours (24h = 360deg)
    dec:    declination in degrees
    elong:  elongation in degrees (angle sun-earth-minor planet)    
    phase:  phase angle in degrees (angle sun-minor planet-earth)        
    AU:     Astronomical Unit (mean distance between earth and sun: 149597870.7 km
    

Orbital elements provided by the MPC (Minor Planet Center).
Calculations by a modified version of AAPlus, a C# implementation of the AA+ project by PJ Naughter from the algorithms presented in the book "Astronomical Algorithms" by Jean Meeus.
NGC2000 dso catalog and star labels from VizieR as provided by the Strasbourg astronomical Data Center.
Tycho2 catalog from the ESO archive.